Regional Weather Roundup
Issued by NWS

Home | Current Version | Previous Version | Text Only | Print | Product List | Glossary On
Versions: 1 2 3 4 5 6 7 8 9 10 11 12 13 14 15 16 17 18 19 20 21 22 23 24 25 26 27 28 29 30 31 32 33 34 35 36 37 38 39 40 41 42 43 44 45 46 47 48 49 50
720
ASUS44 KMEG 210010
RWRTN
TENNESSEE HOURLY STATE WEATHER ROUNDUP
NATIONAL WEATHER SERVICE MEMPHIS TN
700 PM CDT MON MAY 20 2019

TNZ002-004-019-021-049-052-054-088>092-210100-
WEST TENNESSEE

CITY           SKY/WX    TMP DP  RH WIND       PRES   REMARKS
MEMPHIS INTL   PTSUNNY   83  67  58 SE9       29.88F
NWS MEMPHIS      N/A     83 N/A N/A MISG        N/A
JACKSON        FAIR      82  64  54 E7        29.93F
DYERSBURG      FAIR      81  63  54 E6        29.91F
SOMERVILLE     SUNNY     82  68  61 CALM      29.89F
COVINGTON      SUNNY     84  66  54 SE8       29.88F
UNION CITY     SUNNY     81  61  50 E6        29.92F
BOLIVAR        CLEAR     82  66  57 E5        29.90F
PARIS          CLEAR     79  61  53 NE8       29.95F
LEXINGTON      CLEAR     81  64  57 CALM      29.94F
SELMER         CLEAR     82  68  61 CALM      29.93F
SAVANNAH       CLEAR     84  64  51 CALM      29.93F
$$

TNZ008-025-027-028-033-062-065-066-210100-
NORTH MIDDLE TENNESSEE

CITY           SKY/WX    TMP DP  RH WIND       PRES   REMARKS
NASHVILLE      FAIR      82  52  35 N9        29.98F
DICKSON        CLEAR     77  61  57 CALM      29.97F
PORTLAND       CLEAR     77  54  44 N5        29.99F
CLARKSVILLE    FAIR      78  55  44 N7        29.97F
LEBANON        CLEAR     81  55  41 N7        29.97F
SMYRNA         FAIR      81  58  45 N6        29.99F
MURFREESBORO   CLEAR     82  54  36 N6        29.96F
COOKEVILLE     CLEAR     77  55  47 N5        30.01S
LIVINGSTON     CLEAR     75  54  46 N5        30.02F
CROSSVILLE     FAIR      74  50  42 W5        30.05F
ROCKWOOD       CLEAR     75  52  43 N6        30.03S
$$

TNZ061-075-076-078-094-096-097-210100-
SOUTH MIDDLE TENNESSEE

CITY           SKY/WX    TMP DP  RH WIND       PRES   REMARKS
LAWRENCEBURG   CLEAR     82  57  42 CALM      29.97F
LEWISBURG      CLEAR     81  59  47 CALM      29.97F
FAYETTEVILLE   CLEAR     81  57  44 CALM      29.97F
TULLAHOMA      CLEAR     79  57  47 CALM      29.98F
WINCHESTER     CLEAR     81  55  41 CALM      29.99F
MCMINNVILLE    CLEAR     79  57  47 N5        30.00S
COLUMBIA       CLEAR     82  54  36 CALM      29.95F
SHELBYVILLE    CLEAR     81  55  41 N6        29.98F
$$

TNZ017-018-042-046-047-210100-
NORTHEAST TENNESSEE

CITY           SKY/WX    TMP DP  RH WIND       PRES   REMARKS
TRI CITIES     FAIR      78  50  37 W9        30.00R
ELIZABETHTON   FAIR      77  55  47 VRB6      30.00R
GREENEVILLE    CLEAR     77  52  41 W6        30.01R
$$

TNZ012-013-036-069-073-074-210100-
CENTRAL EAST TENNESSEE

CITY           SKY/WX    TMP DP  RH WIND       PRES   REMARKS
KNOXVILLE      FAIR      81  50  33 NW7       29.98S
OAK RIDGE      FAIR      83  52  34 W3        30.00S
DOWNTOWN KNOXV CLEAR     81  54  39 CALM      29.98S
GATLINBURG     CLEAR     81  57  44 W5        29.98S
MORRISTOWN     CLEAR     79  52  38 N6        30.00R
JACKSBORO      CLEAR     77  48  36 CALM      30.04S
$$

TNZ083-085-099-210100-
SOUTHEAST TENNESSEE

CITY           SKY/WX    TMP DP  RH WIND       PRES   REMARKS
CHATTANOOGA    FAIR      84  53  34 W6        29.98F
DAYTON         CLEAR     82  52  34 CALM      29.98S
$$

SKY/WX REPORTED AS FAIR MEANS FEW OR NO CLOUDS BELOW
12 THOUSAND FEET.





USA.gov is the U.S. government's official web portal to all federal, state and local government web resources and services.